Location: B�di�
(14.6834°N, 3.1047°W)
Time: 04:38:05
(UTC+00:00)

BREEZE-M DEB (TANK) - Pass Details

Date: 24 January 2020
Orbit: 313 x 13815 km, 49.6° (Epoch: 19 February)

Event Time Altitude Azimuth Distance (km) Brightness Sun altitude
Rises 18:52:44 0° 323° (NW) 7,141 8.7 -11.3°
Reaches altitude 10° 18:59:46 10° 331° (NNW) 4,299 7.5 -12.9°
Maximum altitude 19:07:28 32° 31° (NNE) 1,318 4.3 -14.7°
Enters shadow 19:08:55 25° 70° (ENE) 1,270 4.0 -15.0°
